Other Public Products
Issued by NWS Grand Forks, ND

Home | Current Version | Previous Version | Text Only | Print | Product List | Glossary Off
Versions: 1 2 3 4 5 6 7 8 9 10 11 12 13 14 15 16 17 18 19 20 21 22 23 24 25 26 27 28 29 30 31 32 33 34 35 36 37 38 39 40 41 42 43 44 45 46 47 48 49 50

000
FPUS83 KFGF 230331
OPUFGF
PRAIRIE TO PINES WEATHER ROUNDUP
NATIONAL WEATHER SERVICE EASTERN NORTH DAKOTA/GRAND FORKS ND
1000 PM CDT FRI AUG 22 2014

 **SATELLITE DATA USED TO AUGMENT SKY COVER AT AUTOMATED STATIONS**
 *****  WEATHER ACROSS EASTERN NORTH DAKOTA  *****

CITY           SKY/WX    TMP DP  RH WIND       PRES   REMARKS
GRAND FORKS    CLOUDY    67  62  84 N13       30.06S
GRAND FORKS AF CLOUDY    66  64  93 N13       30.09R
GRAND CITY NWS   N/A     59 N/A N/A N10         N/A
BUXTON           N/A     68  67  97 NW7         N/A
DEVILS LAKE    CLOUDY    64  55  72 NE13      30.10S
FARGO          CLOUDY    69  65  86 N12       30.04S
WAHPETON ARPT  CLEAR     66  63  88 N7        30.05S
$$

 *****  WEATHER ACROSS CENTRAL AND WESTERN NORTH DAKOTA  *****

CITY           SKY/WX    TMP DP  RH WIND       PRES   REMARKS
JAMESTOWN      PTCLDY    64  62  93 NE5       30.07R
BISMARCK       CLOUDY    67  64  90 NE13      30.07R
MINOT          CLOUDY    63  59  87 N7        30.13R
MINOT AFB      CLOUDY    63  61  91 NE8       30.13R
GARRISON         N/A     64  60  87 NE8       30.11R
WILLISTON      CLOUDY    64  54  69 E12       30.12S
DICKINSON      CLOUDY    64  61  90 E12       30.08R
HETTINGER      CLOUDY    67  61  81 E5        30.07R
$$

 *****  OTHER OBSERVATIONS NORTHEAST NORTH DAKOTA  *****

CITY           SKY/WX    TMP DP  RH WIND       PRES   REMARKS
WALHALLA         N/A     63  63 100 N9G18     30.12F
LANGDON        CLOUDY    61  57  88 N12       30.14R
CAVALIER       CLOUDY    63  59  88 N10       30.11S
GRAFTON        CLOUDY    64  61  88 N12       30.09R
CANDO          CLOUDY    61  57  88 N9        30.14S
FORT TOTTEN      N/A     65  59  80 NE6       29.95S
ROLLA          FAIR      55  55 100 NE6       30.18R
RUGBY          CLOUDY    63  57  82 NE13G18   30.14S
 ***** THE ABOVE OBSERVATIONS ARE NON NWS ARE NOT QUALITY
        CONTROLLED AND MAY MIS-REPORT RAIN FOR SNOW...
$$

 *****  OTHER OBSERVATIONS SOUTHEAST NORTH DAKOTA *****

CITY           SKY/WX    TMP DP  RH WIND       PRES   REMARKS
COOPERSTOWN    NOT AVBL
VALLEY CITY    MOCLDY    64  64 100 NE6       30.09R
OAKES            N/A     66  66 100 NE9       30.07R
GWINNER        PTCLDY    66  66 100 N8        30.08R
SHEYENNE NWR     N/A     66  64  93 NE5       29.95S
BUFFALO          N/A     66  62  86 N6          N/A
WYNDMERE       NOT AVBL
 ***** THE ABOVE OBSERVATIONS ARE NON NWS ARE NOT QUALITY
       CONTROLLED AND MAY MIS-REPORT RAIN FOR SNOW...
$$

  *****  WEATHER ACROSS NORTHERN MINNESOTA  *****

CITY           SKY/WX    TMP DP  RH WIND       PRES   REMARKS
FLAG ISLAND    PTCLDY    70  64  83 N7        30.06R
WARROAD        CLOUDY    66  63  88 NW5       30.08R
ROSEAU         PTCLDY    66  61  82 N5        30.08R
HALLOCK        CLOUDY    66  61  82 N10G16    30.08F
THF RVR FALLS  CLOUDY    66  64  94 N14       30.06R
HALSTAD          N/A     67  64  91 N12         N/A
FOSSTON        CLOUDY    64  64 100 CALM      30.05S
BAUDETTE       CLEAR     66  64  93 N5        30.05S
WASKISH        CLOUDY    70  66  88 CALM      30.05S
CROOKSTON      CLOUDY    66  64  94 N10       30.07R
$$
  *****  WEATHER ACROSS CENTRAL AND WEST MINNESOTA  *****

CITY           SKY/WX    TMP DP  RH WIND       PRES   REMARKS
BEMIDJI        CLOUDY    66  65  99 CALM      30.05R FOG
PARK RAPIDS    PTCLDY    67  67 100 CALM      30.05R
WADENA         CLEAR     66  64  94 NW3       30.05S
DETROIT LAKES  CLOUDY    68  66  94 N7        30.07R
MOORHEAD       CLOUDY    68  68 100 N6        30.06R
FERGUS FALLS   CLEAR     66  64  94 CALM      30.05R
ELBOW LAKE     FAIR      68  66  95 N3        30.04S
MORRIS MN      PTCLDY    72  70  94 N7        30.02S
STAPLES        PTCLDY    70  68  94 CALM      30.05R
WHEATON        PTCLDY    66  64  94 N7        30.04F
$$
  *****  WEATHER ELSEWHERE ACROSS MINNESOTA  *****

CITY           SKY/WX    TMP DP  RH WIND       PRES   REMARKS
DULUTH         CLOUDY    62  60  93 E8        30.07R FOG
INTRNTL FALLS  CLOUDY    68  65  90 N3        30.06R
ELY            CLOUDY    66  64  94 CALM      30.07R
CLOQUET        CLOUDY    61  59  94 CALM      30.08R FOG
BRAINERD       PTCLDY    67  66  97 SE3       30.05R
HIBBING        CLOUDY    70  66  87 S3        30.06R
ALEXANDRIA     CLEAR     72  68  87 N8        30.05R
SAINT CLOUD    PTCLDY    69  66  90 CALM      30.03R
MINNEAPOLIS    PTCLDY    73  67  81 NE7       30.02R
$$

  *****  WEATHER ACROSS SOUTH DAKOTA  *****

CITY           SKY/WX    TMP DP  RH WIND       PRES   REMARKS
SIOUX FALLS    CLOUDY    76  69  79 E7        30.00R
BROOKINGS      NOT AVBL
WATERTOWN      CLOUDY    71  68  90 NE9       30.02R
HURON          MOCLDY    76  69  79 E10       29.96S
SISSETON         N/A     69  68  96 NE5       30.03R
ABERDEEN       PTCLDY    69  67  93 NE8       30.02R
MITCHELL       MOCLDY    76  71  85 E6        29.97R
PIERRE         CLOUDY    70  64  81 E14       29.97R
MOBRIDGE       PTCLDY    69  66  90 NE8       30.00R
RAPID CITY     CLOUDY    67  63  87 CALM      30.01S
$$

  *****  SOME WEATHER IN NEARBY STATES *****

CITY           SKY/WX    TMP DP  RH WIND       PRES   REMARKS
GLASGOW MT     CLOUDY    62  53  72 NE18G28   30.10R
GREAT FALLS MT CLOUDY    52  50  93 N18       30.15R
CHEYENNE WY    CLOUDY    58  55  90 S13       30.11R
SCOTTSBLUFF NE CLOUDY    64  62  93 E10       30.03F
OMAHA NE       MOCLDY    77  74  90 CALM      29.94R
DES MOINES IA  CLOUDY    82  75  79 CALM      29.92F
DAVENPORT IA   CLEAR     75  72  90 SE3       29.97S
CHICAGO IL     MOCLDY    79  70  74 CALM      29.98R
EAU CLAIRE WI  PTCLDY    72  70  93 N6        30.00S
LA CROSSE WI   PTCLDY    76  73  91 N6        29.97R
$$

  *****  SOME NATIONAL WEATHER *****

CITY           SKY/WX    TMP DP  RH WIND       PRES   REMARKS
LA GUARDIA NY  CLOUDY    70  61  73 E8        30.05S
RALEIGH NC     MOCLDY    79  73  82 CALM      29.97S
ATLANTA GA     PTCLDY    83  69  62 NW6       30.04R
NEW ORLEANS LA CLEAR     84  70  62 SW7       30.03R
OKLAHOMA CITY  CLEAR     84  60  44 SE10      29.92R
ALBUQUERQUE NM MOCLDY    64  53  67 CALM      30.16F
SALT LAKE CITY CLOUDY    59  55  87 SE8       29.99F
LOS ANGELES CA CLOUDY    69  63  81 W10       29.93S
BOISE ID       PTCLDY    72  41  32 N16G24    29.90R
SEATTLE WA     MOCLDY    68  55  63 NW3       30.07S
$$

*** WEATHER ACROSS MANITOBA...SASKATCHEWAN AND ONTARIO ***
                ***ONTARIO***

CITY           SKY/WX    TMP DP  RH WIND       PRES   REMARKS
GERALDTON      PTCLDY    64  63  94 NW2       30.08R
THUNDER BAY    MOCLDY    64  63  94 N2        30.06S
SIOUX LOOKOUT  MOCLDY    68  64  88 CALM      30.07R
TORONTO        MOCLDY    70  64  83 E5        30.03S
BIG TROUT LK   CLOUDY    52  48  87 N7        30.17R
PICKLE LAKE    NOT AVBL
DRYDEN         PTCLDY    66  63  88 NE2       30.07S
KENORA         MOCLDY    68  63  83 N5        30.08R
$$
                *** MANITOBA***

CITY           SKY/WX    TMP DP  RH WIND       PRES   REMARKS
BRANDON        CLOUDY    59  54  82 NE10      30.19R
DAUPHIN        CLOUDY    57  54  88 NE12G18   30.23S
ISLAND LAKE    CLOUDY   N/A N/A N/A NE9         N/A
PILOT MOUND      N/A     59  55  88 N8          N/A
THE PAS        CLOUDY    57  48  72 NE8       30.31R
THOMPSON       MOCLDY    52  46  82 NE9       30.35R
WINNIPEG       MOCLDY    59  57  94 N7        30.13S
LYNN LAKE      CLOUDY    52  45  76 MISG      30.39S
CHURCHILL      CLOUDY    48  43  81 N10       30.40R
GILLAM         MOCLDY    48  41  76 NE17      30.37R
$$
                ***SASKATCHEWAN***

CITY           SKY/WX    TMP DP  RH WIND       PRES   REMARKS
ESTEVAN        CLOUDY    61  55  82 NE8       30.18S
KINDERSLEY     LGT RAIN  52  46  82 N9        30.30R
LLOYDMINSTER   MOCLDY    52  43  71 N3        30.36R
PRINCE ALBERT  MOCLDY    57  54  88 N6        30.30R
REGINA         MOCLDY    59  52  77 E9        30.23R



USA.gov is the U.S. government's official web portal to all federal, state and local government web resources and services.